Date String (YYYY-MM-DD hh:mm:ss) UTC,Instrument flags,Ambient pressure (hPa),Sample flow (lpm),Bypass flow (lpm),Sample temperature (°C),Ambient temperature (°C),ASC tube jacket temperature (°C),LED temperature (°C),Box temperature (°C),Sample RH (%),Span deviation,Mass concentration (μg/m³),Mass concentration (μg/m³),Mass concentration (μg/m³)
DateTimeUTC,F1_M11,P_M11,Q1_M11,Q2_M11,T1_M11,T2_M11,T3_M11,T4_M11,T5_M11,U1_M11,ZSPAN_M11,X0_M11,X2_M11,X1_M11
2022-08-14 00:00:00,,0829.3,5.00,0.00,29.4,27.2,00.0,38.1,31.0,26.0,0000.0,0012.60,0005.45,0004.52
2022-08-14 00:01:00,,0829.3,4.99,0.00,29.4,27.1,00.0,38.1,31.0,25.7,0000.0,0012.25,0005.23,0004.36
2022-08-14 00:02:00,,0829.3,5.01,0.00,29.3,27.2,00.0,38.1,30.9,25.5,0000.0,0012.02,0004.95,0004.16
2022-08-14 00:03:00,,0829.4,5.00,0.00,29.3,27.4,00.0,38.0,30.9,25.5,0000.0,0011.67,0004.64,0003.93
2022-08-14 00:04:00,,0829.3,5.01,0.00,29.3,27.6,00.0,38.1,31.0,25.5,0000.0,0010.93,0004.32,0003.71
2022-08-14 00:05:00,,0829.3,5.00,0.00,29.3,27.8,00.0,38.1,31.1,25.8,0000.0,0009.63,0004.01,0003.48
2022-08-14 00:06:00,,0829.3,4.99,0.00,29.4,28.0,00.0,38.1,31.2,25.9,0000.0,0008.94,0003.76,0003.28
2022-08-14 00:07:00,,0829.3,5.00,0.00,29.4,28.2,00.0,38.1,31.3,25.9,0000.0,0008.78,0003.56,0003.10
2022-08-14 00:08:00,,0829.3,5.00,0.00,29.5,28.3,00.0,38.1,31.3,25.5,0000.0,0008.65,0003.38,0002.89
2022-08-14 00:09:00,,0829.2,5.01,0.00,29.5,28.1,00.0,38.1,31.2,25.0,0000.0,0008.17,0003.27,0002.74
2022-08-14 00:10:00,,0829.2,4.99,0.00,29.4,27.4,00.0,38.1,31.0,24.9,0000.0,0008.14,0003.18,0002.60
2022-08-14 00:11:00,,0829.3,5.01,0.00,29.3,27.1,00.0,38.0,30.9,25.8,0000.0,0007.88,0003.11,0002.51
2022-08-14 00:12:00,,0829.2,5.00,0.00,29.3,27.1,00.0,38.0,30.8,26.5,0000.0,0007.81,0003.11,0002.52
2022-08-14 00:13:00,,0829.3,4.99,0.00,29.2,27.2,00.0,38.0,30.9,26.6,0000.0,0006.98,0003.13,0002.55
2022-08-14 00:14:00,,0829.3,5.00,0.00,29.2,27.4,00.0,38.0,30.9,27.0,0000.0,0007.27,0003.19,0002.59
2022-08-14 00:15:00,,0829.2,4.99,0.00,29.2,27.6,00.0,38.0,31.0,27.3,0000.0,0007.58,0003.24,0002.65
2022-08-14 00:16:00,,0829.2,5.00,0.00,29.3,27.8,00.0,38.0,31.1,27.7,0000.0,0007.77,0003.32,0002.71
2022-08-14 00:17:00,,0829.2,5.00,0.00,29.3,28.0,00.0,38.0,31.2,28.7,0000.0,0007.78,0003.38,0002.82
2022-08-14 00:18:00,,0829.4,5.01,0.00,29.3,28.2,00.0,38.0,31.2,29.3,0000.0,0007.80,0003.46,0002.96
2022-08-14 00:19:00,,0829.2,5.00,0.00,29.4,28.3,00.0,38.1,31.3,29.3,0000.0,0008.32,0003.56,0003.10
2022-08-14 00:20:00,,0829.2,5.00,0.00,29.4,27.8,00.0,38.0,31.1,29.3,0000.0,0008.11,0003.65,0003.19
2022-08-14 00:21:00,,0829.2,5.00,0.00,29.3,27.2,00.0,38.0,30.9,29.3,0000.0,0008.18,0003.72,0003.27
2022-08-14 00:22:00,,0829.3,4.99,0.00,29.2,27.0,00.0,38.0,30.9,29.2,0000.0,0008.30,0003.79,0003.34
2022-08-14 00:23:00,,0829.2,5.01,0.00,29.2,27.0,00.0,37.9,30.8,29.4,0000.0,0008.50,0003.87,0003.39
2022-08-14 00:24:00,,0829.2,4.99,0.00,29.1,27.2,00.0,37.9,30.8,29.4,0000.0,0008.98,0003.92,0003.44
2022-08-14 00:25:00,,0829.2,5.01,0.00,29.1,27.4,00.0,37.9,30.9,29.3,0000.0,0009.04,0003.95,0003.47
2022-08-14 00:26:00,,0829.3,5.00,0.00,29.2,27.6,00.0,37.9,31.0,29.3,0000.0,0008.90,0003.99,0003.50
2022-08-14 00:27:00,,0829.2,5.00,0.00,29.2,27.8,00.0,37.9,31.0,29.2,0000.0,0008.93,0003.98,0003.53
2022-08-14 00:28:00,,0829.2,5.00,0.00,29.2,28.0,00.0,38.0,31.1,29.2,0000.0,0008.94,0003.99,0003.53
2022-08-14 00:29:00,,0829.2,5.00,0.00,29.3,28.2,00.0,38.0,31.2,28.9,0000.0,0008.88,0003.97,0003.50
2022-08-14 00:30:00,,0829.1,5.01,0.00,29.3,28.3,00.0,38.0,31.3,28.6,0000.0,0008.06,0003.94,0003.47
2022-08-14 00:31:00,,0829.1,5.02,0.00,29.3,28.0,00.0,38.0,31.1,28.6,0000.0,0008.06,0003.92,0003.44
2022-08-14 00:32:00,,0829.1,4.99,0.00,29.3,27.3,00.0,37.9,31.0,28.4,0000.0,0008.47,0003.89,0003.40
2022-08-14 00:33:00,,0829.1,5.00,0.00,29.2,27.0,00.0,37.9,30.9,28.6,0000.0,0008.44,0003.84,0003.35
2022-08-14 00:34:00,,0829.1,5.01,0.00,29.1,27.0,00.0,37.9,30.8,28.8,0000.0,0008.19,0003.79,0003.31
2022-08-14 00:35:00,,0829.1,5.00,0.00,29.1,27.2,00.0,37.9,30.8,28.9,0000.0,0008.04,0003.75,0003.26
2022-08-14 00:36:00,,0829.1,5.01,0.00,29.1,27.3,00.0,37.9,30.8,28.8,0000.0,0007.47,0003.71,0003.21
2022-08-14 00:37:00,,0829.2,4.99,0.00,29.1,27.5,00.0,37.9,30.9,28.9,0000.0,0007.40,0003.66,0003.17
2022-08-14 00:38:00,,0829.2,5.01,0.00,29.1,27.7,00.0,37.9,31.0,28.9,0000.0,0007.49,0003.63,0003.14
2022-08-14 00:39:00,,0829.2,4.99,0.00,29.2,27.9,00.0,37.9,31.1,29.2,0000.0,0007.43,0003.59,0003.09
2022-08-14 00:40:00,,0829.2,5.00,0.00,29.2,28.1,00.0,37.9,31.1,29.5,0000.0,0007.56,0003.59,0003.04
2022-08-14 00:41:00,,0829.2,4.99,0.00,29.2,28.2,00.0,37.9,31.2,30.0,0000.0,0008.87,0003.61,0003.01
2022-08-14 00:42:00,,0829.1,5.00,0.00,29.3,28.3,00.0,38.0,31.2,30.1,0000.0,0009.29,0003.60,0003.00
2022-08-14 00:43:00,,0829.1,5.01,0.00,29.3,27.8,00.0,37.9,31.0,29.8,0000.0,0009.01,0003.60,0003.01
2022-08-14 00:44:00,,0829.2,4.99,0.00,29.2,27.1,00.0,37.9,30.8,29.8,0000.0,0008.93,0003.61,0003.01
2022-08-14 00:45:00,,0829.2,5.00,0.00,29.1,26.9,00.0,37.9,30.8,29.8,0000.0,0009.68,0003.67,0003.02
2022-08-14 00:46:00,,0829.1,5.01,0.00,29.0,27.0,00.0,37.9,30.7,30.4,0000.0,0010.21,0003.72,0003.04
2022-08-14 00:47:00,,0829.2,4.99,0.00,29.0,27.1,00.0,37.8,30.7,30.6,0000.0,0010.27,0003.73,0003.06
2022-08-14 00:48:00,,0829.2,5.01,0.00,29.0,27.3,00.0,37.8,30.8,30.6,0000.0,0010.47,0003.75,0003.07
2022-08-14 00:49:00,,0829.2,5.00,0.00,29.0,27.5,00.0,37.8,30.9,30.7,0000.0,0010.41,0003.77,0003.09
2022-08-14 00:50:00,,0829.3,5.00,0.00,29.1,27.7,00.0,37.8,30.9,30.9,0000.0,0010.52,0003.79,0003.10
2022-08-14 00:51:00,,0829.3,5.01,0.00,29.1,27.9,00.0,37.9,31.0,30.7,0000.0,0010.48,0003.82,0003.12
2022-08-14 00:52:00,,0829.2,5.00,0.00,29.1,28.1,00.0,37.9,31.1,30.6,0000.0,0009.35,0003.79,0003.12
2022-08-14 00:53:00,,0829.3,4.99,0.00,29.2,28.2,00.0,37.9,31.1,30.7,0000.0,0008.73,0003.80,0003.12
2022-08-14 00:54:00,,0829.4,5.01,0.00,29.2,28.3,00.0,37.9,31.2,30.6,0000.0,0008.70,0003.78,0003.11
2022-08-14 00:55:00,,0829.2,5.00,0.00,29.3,28.3,00.0,37.9,31.2,30.7,0000.0,0008.74,0003.79,0003.11
2022-08-14 00:56:00,,0829.4,4.99,0.00,29.2,27.7,00.0,37.9,31.0,30.8,0000.0,0008.01,0003.72,0003.11
2022-08-14 00:57:00,,0829.3,5.01,0.00,29.2,27.1,00.0,37.9,30.8,31.3,0000.0,0007.31,0003.68,0003.10
2022-08-14 00:58:00,,0829.2,5.00,0.00,29.1,26.9,00.0,37.9,30.7,31.7,0000.0,0007.12,0003.65,0003.09
2022-08-14 00:59:00,,0829.3,4.99,0.00,29.0,27.0,00.0,37.8,30.6,32.1,0000.0,0007.10,0003.67,0003.11
